COSMOS 1275 DEB, 42212

Orbit data source: Space-Track

COSMOS 1275 DEB, 42212 is space debris in LEO originally from a launch on Thu, 04 Jun 1981 UTC launched from the Plesetsk Missile And Space Complex (PKMTR). Debris objects in space refer to the collection of defunct objects orbiting the Earth. Examples of debris include non-operational satellites, rocket bodies, and fragments generated from explosions, collisions, or faulty payload assembly.

Loading next visibility...
Identifier
42212, 1981-053UC
Orbit
LEO
Country
Flag of CISCIS
Related business
Manufacturer
Unknown
Mission
Spacecraft
Bus & Motor
Unknown
Mass
Unknown
Launch date (UTC)
1981-06-04 (45 years ago)
Launch vehicle
Unknown
Launch site
Plesetsk Missile And Space Complex (PKMTR)
Object type
Payload
Rocket body
Debris
Shape & HBR
Unknown shape, 0.1 m
Radar Cross Section
Small (<0.1 m²)

Expand to show TLE details & history
Last TLE update: 2 days ago

TLE from 2 days ago
0 COSMOS 1275 DEB
1 42212U 81053UC  26103.52654647  .00000565  00000-0  63197-3 0  9994
2 42212  83.0518 192.1020 0152466  98.3602 281.0627 13.64494870615188
Epoch: 2026-04-13T12:38Z
TLE epoch observation values (Epoch: 2026-04-13T12:38:13.615Z)
Latitude
17.55742°
Longitude
163.02774°
Altitude
1,001.728 km
Speed
7.362 km/s
True Right ascension
12h 57m 12s
True Declination
17° 27' 43"
Sunlit
Object was in full shadow at epoch
Visualization orbit readout
Latitude
Unknown
Longitude
Unknown
Altitude
Unknown
Speed
Unknown
Apparent Right ascension
Unknown
Apparent Declination
Unknown
Sunlit
N/A
Visualization observer readout
Local Sidereal Time
07:40:49
Azimuth
Unknown
Elevation
Unknown
Doppler factor
Unknown
Orbital elements
Apogee altitude
1,129.304 km
Perigee altitude
903.816 km
Semi-major axis
7,394.697 km
Eccentricity
0.01525
Inclination
83.0518°
RAAN
192.102°
Arg. of periapsis
98.3602°
True anomaly
279.342°
Mean anomaly
281.0627°
Eccentric anomaly
280.20295°
Mean motion
3.41321 °/min
Orbital period
105.47 mins
BSTAR
0.00063197
Loading maneuver chart data...
Computing Atmospheric mass density...
Loading historical data...
Loading historical data...
Loading historical data...
Loading historical data...
Loading historical data...
Loading historical data...
Loading historical data...

Documentation

Showing up to 5 results
|